GFSSW_250_spd_021.txt.gz
Wind_Speed
54 60 65 68 69 80 86 86 83 78 77 76 83 87 88 89 91 92 85 89 91 89 88 87 78 78 75 78 78 82 79 76 77 71 70 69 71 75 73 68 63 60 56 56 54
47 56 61 65 68 74 81 92 97 85 85 81 77 81 84 88 88 88 91 93 92 92 92 92 91 87 85 85 80 80 73 71 75 80 78 74 73 73 72 68 73 67 64 60 59
31 40 53 63 66 70 75 83 97 95 91 91 88 87 82 80 81 82 88 92 94 94 93 93 90 93 89 90 83 80 71 70 73 76 78 80 76 73 74 70 73 73 71 73 71
25 29 38 50 59 65 71 76 83 90 98 102 102 95 97 92 84 76 76 81 87 94 95 93 88 89 86 87 90 90 79 76 77 80 81 78 82 81 77 72 71 72 73 72 77
35 35 37 41 49 60 66 70 76 82 85 91 100 103 108 101 98 99 95 92 91 92 89 89 90 90 87 87 90 82 82 88 84 82 77 76 76 75 75 71 67 71 74 75 79
43 46 48 49 51 54 59 66 72 78 84 88 89 97 103 100 109 109 105 103 104 105 99 92 89 94 87 87 89 85 89 86 90 85 81 78 73 70 67 70 70 71 69 70 73
46 51 56 59 62 64 65 67 70 74 78 83 89 93 93 99 108 110 110 110 109 108 108 108 106 102 93 95 88 89 93 89 79 73 76 78 64 62 69 70 69 71 70 73 74
44 51 56 60 67 72 75 77 77 78 80 82 84 87 87 100 102 106 109 110 109 108 105 110 110 104 101 97 88 90 95 90 78 80 79 90 66 71 68 71 73 73 76 77 75
44 47 48 53 65 72 78 85 86 87 87 87 88 87 86 93 98 104 105 103 108 101 105 109 114 109 106 103 100 97 89 84 77 78 85 92 73 74 76 80 80 79 80 78 79
47 47 49 53 52 61 73 83 89 95 96 96 96 92 94 94 94 96 100 105 104 107 107 107 109 112 111 108 100 102 98 90 80 89 94 94 87 81 85 87 82 81 80 81 79
54 56 61 63 59 56 66 79 89 94 99 106 105 103 100 101 98 96 97 98 104 108 110 109 109 101 90 92 95 102 102 96 95 96 100 93 91 87 83 86 88 85 87 86 87
59 62 66 65 61 63 67 77 87 96 93 106 107 109 108 110 102 100 101 99 99 102 109 114 106 93 94 96 97 98 97 95 97 97 99 95 96 90 84 84 86 85 85 83 84
63 66 70 67 66 71 81 75 75 79 83 97 102 105 111 111 106 108 107 105 103 101 102 104 91 95 99 102 96 92 87 84 88 96 95 94 94 83 83 84 81 81 79 79 80
65 73 70 66 70 78 82 75 65 63 71 80 94 100 104 110 109 113 114 111 109 106 105 96 88 89 94 98 94 91 87 86 87 89 82 88 76 68 76 74 75 73 68 67 65
68 73 67 64 73 81 76 67 52 48 57 69 79 85 91 96 106 113 115 115 113 112 111 94 91 95 93 85 92 80 83 86 86 86 84 75 67 61 69 67 66 63 58 56 52
70 72 65 67 73 75 65 51 44 40 45 54 63 75 82 88 92 99 106 113 115 117 112 102 101 102 91 88 91 81 82 86 85 83 80 65 66 52 57 57 51 49 47 45 44
72 72 64 69 73 67 63 51 42 34 35 44 52 61 71 83 92 96 97 103 110 113 109 108 109 102 97 93 89 84 82 84 83 80 61 56 60 42 46 43 40 38 32 28 36
73 72 68 72 75 68 58 48 39 37 31 33 42 51 58 70 84 91 94 98 100 106 104 107 107 104 100 98 96 89 86 83 75 69 56 52 41 42 41 34 30 30 26 29 28
74 72 69 72 76 68 58 41 37 33 31 29 33 43 49 53 70 84 93 93 97 93 90 101 103 105 105 105 99 93 92 75 76 72 66 56 47 41 35 27 25 30 25 21 23
72 75 73 72 79 74 56 46 36 30 27 26 26 33 39 47 55 60 78 89 91 86 82 97 95 106 108 102 96 100 88 90 82 75 65 56 48 44 36 29 26 23 21 21 23
69 75 74 75 77 76 59 46 39 32 27 23 22 24 28 38 47 52 59 70 82 86 86 86 88 98 101 100 101 96 94 92 83 77 68 58 50 51 41 29 24 17 18 20 21
72 75 75 75 76 73 65 50 44 35 28 23 21 21 24 29 37 45 49 58 67 75 83 83 84 94 92 93 94 95 91 89 86 78 70 63 55 50 36 24 25 22 29 22 21
72 75 77 75 77 81 75 58 44 36 28 23 17 15 16 21 27 33 40 46 50 54 65 70 78 89 87 90 90 91 90 88 85 82 75 67 60 52 48 34 21 21 22 23 19
73 74 79 80 78 78 81 70 49 39 31 25 18 14 12 14 20 26 33 38 44 46 51 58 67 78 85 90 86 85 90 90 87 79 69 64 62 59 48 30 23 23 21 19 22
75 74 75 77 80 80 80 73 50 42 33 28 19 14 11 8 12 17 24 29 35 42 45 47 54 63 72 83 81 82 82 81 77 76 66 60 66 56 50 38 33 26 16 17 21
72 74 77 78 79 78 77 78 57 44 36 30 23 16 11 9 7 8 14 21 29 34 37 41 45 51 57 65 71 71 68 66 66 67 65 68 63 62 56 42 34 31 19 18 21
70 75 77 77 77 77 76 77 65 48 39 33 29 23 15 9 6 6 9 17 20 24 29 35 39 42 48 55 63 68 59 60 57 59 64 63 60 57 38 38 32 33 22 20 26

GFSSW_250_spd_024.txt.gz
Wind_Speed
57 61 63 64 65 71 75 79 88 88 76 80 84 89 93 94 93 96 93 97 101 97 98 95 93 91 87 78 80 84 80 74 73 74 72 73 72 72 71 67 65 66 67 63 64
27 48 58 61 64 66 73 79 87 92 86 84 87 85 89 89 94 88 98 104 101 102 98 99 94 96 93 91 90 82 77 76 70 74 71 75 74 72 73 67 67 67 68 69 72
20 30 44 54 58 65 69 75 82 91 95 94 91 85 85 87 88 93 96 98 99 100 99 107 99 95 91 95 91 86 72 72 70 71 74 75 74 74 73 69 72 78 74 72 74
25 28 33 42 52 61 67 73 79 86 91 101 98 101 94 85 90 88 92 99 99 103 101 102 104 106 100 98 91 94 85 79 77 77 77 72 74 76 73 72 76 75 73 72 75
33 36 38 41 44 48 56 67 76 83 87 94 97 103 105 98 96 96 95 93 98 100 100 101 104 103 104 105 103 99 87 92 89 87 84 83 79 75 74 71 72 69 71 70 71
36 41 45 49 51 54 56 58 63 74 84 90 94 104 108 106 109 109 103 97 97 96 96 98 97 102 102 98 103 97 97 93 91 85 83 87 83 81 74 74 70 71 70 70 69
33 38 45 51 57 62 64 66 68 70 75 84 90 96 101 106 113 119 112 111 111 105 104 97 98 97 98 99 95 95 102 98 88 83 80 87 76 70 70 71 70 72 70 69 67
36 38 42 47 53 59 66 71 76 79 81 83 87 92 93 105 108 115 118 116 115 115 109 111 113 104 95 90 89 89 92 86 76 78 78 89 70 71 78 75 73 78 82 79 69
37 39 41 44 48 53 59 67 76 82 88 93 94 95 96 102 106 111 115 118 122 125 119 119 119 115 109 100 98 95 85 86 79 84 89 94 66 77 83 87 85 80 77 76 70
38 40 43 43 48 52 56 61 66 78 86 99 103 101 104 108 106 108 111 115 117 118 121 125 123 122 118 112 103 100 99 95 91 98 100 96 76 80 83 84 83 82 79 75 75
41 45 48 49 54 60 62 61 68 73 85 97 101 107 113 112 110 111 111 111 114 117 116 117 122 114 106 109 115 112 103 96 95 101 100 93 86 78 83 82 78 74 74 76 77
46 49 50 54 60 66 64 63 66 72 80 97 94 97 106 119 111 111 113 113 114 115 117 116 108 107 110 116 113 112 107 101 103 101 99 99 90 89 88 86 85 84 79 79 79
48 50 53 59 66 66 62 64 73 75 69 68 75 90 98 102 109 118 121 118 117 115 114 114 107 109 110 110 107 105 100 98 99 100 99 104 97 97 89 88 84 82 81 82 82
49 51 58 61 67 61 62 68 76 73 64 56 59 66 79 84 95 106 119 125 122 117 114 107 104 105 107 108 107 103 102 100 99 99 92 95 82 79 74 76 77 77 77 77 78
47 52 59 62 60 57 60 68 74 62 46 44 49 53 66 75 82 95 103 115 122 123 118 105 108 108 107 103 105 95 100 99 98 96 93 86 80 64 68 67 69 66 64 64 64
49 55 58 62 58 57 60 67 63 54 44 36 38 44 50 64 77 88 90 97 112 119 119 115 114 111 104 104 100 92 94 96 98 97 90 83 81 68 66 69 63 58 55 54 53
55 60 62 64 61 60 62 67 62 51 42 36 31 37 44 53 67 81 87 91 94 108 113 118 120 112 108 103 98 94 94 93 94 94 75 72 73 59 62 62 56 52 47 46 46
54 61 63 62 63 63 66 67 56 45 38 34 31 30 40 47 56 67 80 88 93 93 96 110 113 111 109 107 101 96 95 88 79 76 65 69 66 50 50 44 45 44 41 38 35
57 62 65 66 67 66 68 63 52 42 38 34 25 28 29 37 47 56 63 78 86 85 81 95 102 106 107 107 103 99 92 85 82 76 68 63 55 48 45 37 32 31 33 30 26
59 61 66 70 71 68 68 68 50 44 37 30 28 22 22 30 38 46 53 62 71 79 85 87 93 100 106 108 103 97 95 94 85 80 68 60 53 45 46 37 28 26 26 25 21
58 62 70 72 74 71 66 69 56 46 40 34 24 21 17 22 31 36 44 50 58 66 76 80 82 92 95 97 98 98 94 94 90 81 71 62 52 51 45 36 29 26 26 19 14
58 63 70 73 74 71 66 64 59 51 41 35 29 21 16 16 21 31 36 41 48 56 62 69 80 90 85 85 93 97 96 91 86 79 73 64 56 58 44 35 30 26 25 21 17
61 67 70 71 73 77 71 68 63 55 45 39 33 27 16 12 17 23 28 34 42 47 51 57 70 88 83 83 86 87 92 89 80 78 71 67 62 56 49 40 32 29 25 23 14
63 68 71 72 77 74 71 68 70 59 47 38 34 28 23 15 11 16 22 29 35 39 43 48 59 75 85 79 80 78 82 82 80 73 68 57 68 60 52 43 29 24 23 20 14
64 66 66 73 77 78 72 67 62 67 48 40 34 28 21 17 13 10 15 23 27 30 32 42 51 58 69 70 66 69 70 72 74 73 68 62 63 58 57 47 39 31 24 18 15
60 67 72 73 76 77 69 66 64 63 56 41 35 28 22 19 14 9 10 15 20 24 28 32 40 46 53 57 67 68 66 61 66 65 64 64 62 61 50 46 41 31 28 18 19
61 64 68 71 74 76 67 63 61 61 56 45 38 33 24 16 12 6 5 7 13 19 26 29 33 40 44 54 62 65 64 58 63 63 62 62 68 56 43 31 33 31 32 27 23

GFSSW_250_spd_027.txt.gz
Wind_Speed
27 49 67 71 71 72 73 86 90 91 91 84 86 84 88 89 94 97 96 98 101 102 99 97 98 97 94 92 89 77 76 73 75 76 77 71 70 70 74 70 69 68 67 66 62
12 21 44 66 70 71 72 74 80 88 92 95 89 85 86 90 88 87 94 101 103 105 102 104 102 103 98 98 93 83 78 66 74 80 78 79 72 73 75 74 72 73 72 64 60
18 18 20 35 60 70 71 74 75 81 89 96 95 90 90 90 91 90 93 99 100 105 105 103 104 105 102 100 98 96 81 75 74 76 75 72 67 69 72 69 71 71 69 64 65
23 25 28 29 33 47 66 71 74 76 82 93 103 101 102 98 95 98 98 102 106 106 103 109 114 111 105 105 102 102 98 94 89 87 80 76 75 74 72 64 67 69 63 63 65
25 27 33 36 38 42 49 60 71 76 80 84 96 99 110 110 112 102 102 102 102 104 104 110 109 110 109 109 109 109 103 104 102 99 93 88 81 75 71 65 66 64 62 64 64
29 31 32 39 44 48 50 54 61 69 76 83 87 91 97 106 114 114 106 103 106 106 107 108 108 109 110 108 111 106 108 106 101 95 97 97 88 86 76 77 75 68 66 68 70
31 34 37 38 43 50 54 59 63 66 71 77 84 91 93 102 107 117 118 113 109 108 107 106 109 112 109 106 108 106 106 105 101 100 100 96 87 78 73 71 70 72 73 76 79
37 39 40 41 43 47 54 60 66 71 75 78 82 86 94 103 108 113 119 121 120 117 115 114 113 111 108 106 106 107 107 103 95 98 94 99 90 80 80 79 76 78 80 85 82
39 37 39 41 44 47 53 58 65 71 78 85 89 91 95 100 107 113 117 121 125 126 125 129 121 113 112 107 105 99 99 96 94 93 97 98 85 85 88 92 88 86 86 82 77
34 33 33 36 41 45 49 53 60 70 75 83 93 99 105 106 105 109 117 119 120 125 131 130 130 129 118 111 103 98 93 92 93 95 99 102 90 85 88 91 89 88 81 74 71
32 33 36 38 43 46 49 54 59 68 75 84 92 101 109 113 116 114 116 118 123 124 126 129 132 129 124 119 116 111 102 97 96 94 93 89 83 79 83 87 80 76 73 71 74
32 35 37 42 44 47 53 57 61 64 69 72 81 97 110 113 119 120 122 118 120 123 127 128 122 126 125 130 126 120 115 110 105 108 105 97 84 80 84 81 79 78 82 84 81
37 39 40 41 48 53 57 59 63 66 68 69 69 71 74 86 106 117 121 123 124 121 122 126 122 125 127 128 122 125 125 119 115 113 108 107 96 93 88 87 87 86 84 85 81
36 35 40 47 52 54 54 58 61 63 68 72 73 64 65 70 86 101 106 111 122 127 123 118 120 121 123 119 120 119 122 124 121 122 116 115 103 103 95 96 92 90 85 78 80
32 36 44 48 50 51 55 57 58 63 70 64 55 50 50 56 67 78 96 103 106 116 123 120 116 116 120 118 118 113 114 115 116 110 108 102 96 87 98 88 83 80 80 80 78
36 40 43 44 49 53 57 57 59 63 62 53 49 45 39 43 54 62 77 92 99 105 112 114 126 122 115 117 115 111 109 108 110 107 98 92 88 76 81 79 77 73 69 66 63
40 43 41 50 54 56 56 57 59 64 63 47 45 41 38 39 45 51 63 78 92 93 98 111 116 123 124 116 112 109 108 104 103 99 89 87 82 73 80 75 73 62 63 64 62
41 44 52 55 54 59 58 58 60 64 58 48 38 37 34 34 38 47 53 61 75 88 87 98 109 114 121 121 114 108 104 101 98 91 81 83 72 67 69 68 65 63 62 61 60
43 47 56 55 58 58 62 57 57 61 53 44 38 33 31 29 34 41 44 48 59 69 84 92 98 103 110 116 118 113 107 100 94 88 79 71 61 57 58 59 57 57 52 49 46
48 52 57 60 60 61 65 57 58 58 52 42 36 32 28 25 28 33 38 40 49 58 69 89 88 91 100 105 109 113 110 105 97 87 75 64 55 47 49 46 46 42 42 38 35
51 54 56 62 62 62 68 60 59 56 52 41 36 31 27 22 24 27 32 36 42 50 57 68 80 85 92 92 99 107 109 107 101 91 76 64 53 44 48 40 35 34 31 29 28
47 49 54 61 61 61 65 57 56 57 55 46 38 33 28 23 20 23 27 32 34 42 46 55 69 85 86 86 92 96 100 101 97 88 79 66 54 50 55 41 35 36 33 31 27
52 50 53 61 62 63 67 62 54 57 56 51 43 37 30 23 20 19 24 28 31 36 42 50 61 72 76 80 80 82 87 88 88 88 79 69 58 66 59 47 39 36 33 32 27
51 54 58 62 65 59 65 65 60 60 58 55 46 39 31 24 18 16 19 23 26 29 37 44 51 63 71 73 75 69 73 75 79 79 75 64 62 67 62 50 41 36 34 32 31
53 55 58 63 68 64 64 62 58 57 59 58 48 39 32 21 17 11 15 17 22 27 31 37 44 54 63 63 67 68 65 63 64 71 74 70 69 70 63 54 45 39 34 31 35
55 59 62 64 66 70 64 65 60 56 56 59 50 38 32 21 14 12 8 9 16 21 26 34 39 45 50 54 60 64 63 58 60 61 65 70 72 68 64 57 47 41 37 30 27
56 60 60 63 66 69 66 64 56 55 55 57 51 40 29 20 15 12 8 8 14 18 24 26 33 38 40 42 52 56 57 57 58 59 61 67 70 67 61 56 52 45 37 31 27

GFSSW_250_spd_030.txt.gz
Wind_Speed
9 25 48 63 67 74 74 73 74 76 81 83 84 84 89 95 95 92 97 95 94 92 92 94 97 95 94 94 88 80 67 67 68 71 74 73 72 72 69 65 66 66 67 68 66
12 12 17 36 54 64 73 76 74 75 81 85 89 86 85 88 93 97 103 102 95 92 92 93 99 101 101 98 93 88 77 74 77 77 77 74 72 71 66 69 68 71 74 72 64
17 18 20 20 26 43 62 75 77 77 79 82 91 89 91 93 99 95 94 104 103 103 101 99 99 100 99 104 101 96 89 87 84 82 82 78 77 67 66 68 73 72 68 63 60
23 25 25 27 29 30 40 60 78 79 78 81 89 96 97 99 97 96 94 98 103 106 105 109 107 106 102 102 105 102 96 95 95 92 88 84 77 75 64 65 69 65 65 59 59
27 29 30 30 33 37 38 42 56 77 81 81 85 89 102 109 104 100 100 98 104 101 104 106 110 113 109 104 110 103 103 102 102 104 99 96 90 83 70 68 70 70 68 68 66
31 32 33 35 36 37 42 46 48 55 72 84 84 87 93 108 112 112 110 109 106 106 106 106 104 106 110 109 115 108 105 108 109 108 105 104 96 97 83 82 81 82 80 76 74
34 34 36 39 41 42 44 47 52 56 59 65 76 87 91 95 98 105 108 114 117 112 111 112 112 112 108 105 107 108 113 112 108 107 108 106 102 93 80 88 87 86 86 89 85
37 40 41 43 44 48 50 51 53 59 64 68 70 75 85 94 98 102 106 109 119 119 117 120 117 114 111 110 109 108 112 111 107 109 106 109 103 95 96 100 97 91 92 92 87
43 43 44 44 45 45 48 53 55 58 63 69 76 81 85 89 96 103 107 110 113 125 125 128 124 123 120 116 115 112 107 106 106 104 107 108 92 98 101 103 99 97 96 93 89
40 38 36 36 37 39 40 47 54 58 63 70 77 85 91 96 100 104 108 111 115 117 126 137 136 133 130 123 114 111 109 106 106 102 108 106 93 94 96 97 93 94 89 86 81
30 30 31 33 33 38 40 44 50 58 60 68 77 86 93 99 106 112 112 114 117 120 123 126 133 124 127 132 129 123 118 113 110 108 106 102 99 93 93 94 91 88 85 80 76
30 33 32 36 37 37 40 45 51 56 63 68 75 82 90 100 109 117 118 121 122 123 126 128 124 124 129 130 129 128 127 117 112 110 105 100 95 90 87 82 82 81 82 79 77
26 28 27 30 34 39 44 50 54 57 64 68 72 76 81 89 102 109 114 119 121 125 128 129 124 125 127 128 129 132 128 125 121 116 109 105 94 89 84 78 77 73 71 71 69
26 28 30 35 39 39 47 50 55 59 62 66 71 72 78 73 77 78 90 105 116 119 125 129 128 123 124 127 128 127 129 129 129 127 122 120 99 91 86 81 79 77 79 74 72
30 32 35 37 39 45 50 53 56 59 64 63 66 70 75 68 64 69 73 81 100 109 113 115 120 125 128 121 122 122 124 123 121 121 119 108 100 97 99 90 87 90 87 83 88
32 36 38 40 44 52 54 57 57 58 59 63 65 64 59 52 49 53 59 69 77 89 101 102 105 115 121 124 124 116 116 118 119 116 106 102 99 89 98 98 97 95 91 90 89
35 39 41 44 47 47 54 56 56 59 58 56 59 62 54 51 45 46 50 58 62 67 78 92 101 105 106 113 118 118 114 109 107 104 94 98 94 80 83 88 90 93 91 87 78
39 42 44 44 43 47 56 53 55 57 57 57 58 62 51 47 45 39 44 47 52 57 62 72 91 99 96 101 109 112 114 110 104 93 91 93 81 75 72 77 78 82 80 75 69
38 38 39 41 46 49 55 55 56 55 55 52 58 61 57 43 41 39 37 39 44 50 55 63 72 85 94 97 101 106 107 109 107 97 90 76 73 68 71 70 67 64 62 63 61
40 42 46 47 51 53 55 64 58 55 54 53 52 54 53 44 38 35 33 32 36 44 49 55 62 73 83 90 94 97 102 105 102 98 87 74 68 59 63 60 55 50 49 48 46
46 45 50 53 57 59 59 65 64 58 54 52 56 53 44 42 37 31 27 28 29 36 41 47 54 64 72 81 86 89 91 94 93 92 88 78 64 57 59 56 51 45 41 38 34
51 50 52 56 59 60 59 63 64 63 57 52 56 54 44 37 33 28 25 23 24 28 35 42 51 57 61 65 78 78 81 84 84 83 84 80 67 61 58 55 46 39 34 30 28
54 54 55 55 58 58 61 63 67 63 57 54 58 55 44 36 31 26 20 18 20 23 30 36 44 50 52 58 67 71 74 75 79 79 79 78 67 64 60 57 46 37 30 27 29
53 52 56 54 55 54 59 63 69 68 58 56 59 55 45 35 27 23 17 14 16 20 23 31 38 45 48 52 59 65 68 67 68 68 72 73 67 66 62 60 46 38 31 31 30
52 53 53 55 58 58 59 62 67 66 62 58 62 56 44 34 23 21 16 14 14 18 20 27 34 42 43 46 52 58 63 61 60 64 63 69 68 70 67 61 49 41 35 33 31
51 54 55 59 57 59 61 64 68 68 57 58 61 54 43 33 23 16 15 13 14 13 18 23 31 36 36 39 47 56 58 55 56 59 60 64 68 73 72 63 54 48 38 36 34
53 53 56 60 59 61 61 63 66 66 59 56 59 52 41 31 23 18 13 10 10 10 12 18 24 29 31 35 42 51 60 58 58 59 59 64 76 76 71 65 57 50 44 39 34

GFSSW_250_spd_033.txt.gz
Wind_Speed
8 7 20 49 66 69 71 72 74 73 75 75 80 86 89 93 93 87 84 87 89 87 86 92 93 93 94 89 90 84 81 74 73 75 72 78 82 76 76 73 71 68 63 63 65
14 14 15 22 35 57 70 71 72 73 74 76 78 84 87 92 96 95 92 88 89 88 91 93 89 96 94 93 94 95 86 84 82 85 85 78 75 77 80 76 70 70 70 68 69
20 21 21 23 24 34 52 66 73 76 76 76 79 82 86 91 95 96 101 98 97 94 96 95 93 92 97 97 99 94 87 86 88 86 85 79 75 74 67 62 62 65 67 67 66
25 25 27 28 28 30 31 41 61 71 75 80 82 81 84 87 94 98 102 108 108 105 104 103 102 100 100 99 99 100 93 94 93 95 93 91 81 71 73 68 61 60 63 66 65
29 29 30 31 33 34 35 37 38 48 65 74 82 87 86 87 90 95 101 103 108 109 109 109 110 105 106 102 103 96 95 95 101 104 101 101 91 86 73 74 73 67 62 61 63
32 33 34 36 37 39 41 42 44 46 48 58 71 83 90 89 90 93 100 101 104 102 103 104 104 113 107 106 105 102 100 98 100 103 104 107 100 101 83 84 83 81 72 63 63
38 39 39 39 40 42 44 47 48 49 52 54 57 68 84 93 93 94 98 100 107 109 108 109 109 110 110 109 108 112 110 106 102 101 102 104 102 93 87 87 92 86 83 84 82
41 40 42 41 42 45 46 47 52 53 54 56 60 63 66 77 92 97 97 101 104 114 114 114 113 113 114 113 110 107 115 112 106 109 105 111 100 86 93 96 92 89 89 88 88
38 37 37 38 40 43 46 47 51 52 56 60 62 65 72 75 79 88 100 105 106 110 113 122 122 117 118 115 114 109 110 107 106 109 115 118 101 99 101 99 92 94 95 91 84
32 32 32 31 30 32 35 35 39 44 49 55 62 69 73 79 84 87 91 99 109 112 115 118 127 125 124 122 114 117 113 114 111 109 113 112 94 100 100 103 100 98 93 90 89
26 29 32 32 31 32 34 37 40 44 46 52 60 67 74 80 87 91 97 100 104 111 118 120 120 121 134 131 130 125 123 119 116 114 111 109 100 99 97 94 93 92 93 90 85
22 21 24 25 26 27 30 34 36 39 47 52 57 62 69 77 84 94 100 103 107 111 116 122 121 122 125 129 127 128 122 121 124 120 116 110 104 99 94 91 88 87 86 84 79
22 21 20 22 25 30 33 37 40 40 48 54 58 63 67 71 74 80 87 98 108 114 117 116 115 122 126 127 127 126 125 121 120 127 121 111 104 98 95 92 90 86 86 81 74
22 23 23 26 29 33 37 40 44 48 55 61 62 64 66 66 69 73 75 85 93 103 111 115 119 124 123 122 126 129 126 122 119 127 121 115 98 99 96 95 93 89 87 82 78
28 29 30 34 35 38 40 42 45 47 56 60 60 63 66 66 64 68 66 69 82 86 94 103 108 116 122 127 126 123 125 124 122 119 117 114 103 103 105 103 100 93 90 85 80
31 31 32 34 36 37 38 41 45 50 54 59 60 61 62 62 61 60 66 65 73 70 75 84 95 101 108 116 119 122 125 122 122 120 112 105 100 95 100 97 99 100 95 91 84
29 31 32 34 36 38 42 46 48 54 54 57 59 60 59 56 57 60 61 58 56 61 63 71 77 85 96 102 105 110 114 118 121 116 103 103 100 88 94 99 96 97 96 94 90
35 40 40 40 44 44 48 52 53 55 56 61 59 62 56 51 55 58 55 51 48 48 51 60 67 71 79 86 96 97 98 106 107 109 102 103 86 84 85 88 89 90 91 88 82
41 45 46 49 49 47 51 53 53 56 56 60 63 61 59 58 57 54 48 46 43 40 45 49 57 59 63 69 77 88 88 91 96 96 98 95 91 84 76 78 84 82 77 72 65
43 47 50 50 47 50 49 55 55 56 58 61 60 56 52 59 58 51 43 40 40 36 38 43 46 51 54 59 65 72 78 85 81 82 85 85 86 83 77 77 75 66 65 61 58
41 44 51 51 51 53 54 57 60 60 62 62 64 54 54 56 49 45 39 33 34 30 31 36 40 45 46 50 56 60 63 75 71 71 77 82 82 82 76 70 57 52 52 50 50
43 45 49 53 53 56 55 58 62 63 66 64 65 54 55 52 42 36 29 26 27 25 26 29 34 37 40 42 49 51 56 59 65 68 72 79 79 76 70 68 56 49 45 43 42
48 48 50 52 52 56 58 60 61 62 66 67 66 55 55 51 40 30 24 22 24 21 22 24 29 30 34 38 41 42 49 54 61 67 68 70 72 70 69 65 56 46 43 35 33
47 46 46 50 50 55 58 61 63 64 68 68 64 56 55 44 33 28 23 22 19 17 17 21 23 26 29 32 36 41 46 52 60 66 67 66 66 63 67 63 57 49 42 33 30
48 46 44 48 52 54 58 60 62 64 68 67 64 57 52 42 33 27 23 19 19 16 13 14 18 21 24 28 33 38 46 51 58 67 64 63 63 62 67 65 57 49 40 35 32
48 47 44 47 54 56 58 61 63 64 63 67 64 57 50 40 34 29 24 20 16 13 11 9 14 17 18 24 32 40 48 55 60 64 64 57 63 66 72 67 59 52 41 37 36
48 52 51 49 56 57 59 60 61 64 62 64 62 56 52 40 31 27 23 18 11 8 6 5 11 15 19 27 32 39 46 57 58 61 59 56 66 72 75 67 60 53 44 39 38

GFSSW_250_spd_036.txt.gz
Wind_Speed
19 13 9 32 58 64 70 71 73 73 75 75 77 82 86 87 91 94 94 94 93 94 92 93 95 96 93 94 96 96 88 83 83 82 83 82 80 79 75 71 73 76 73 71 73
22 20 17 16 20 48 66 70 72 74 77 78 77 79 84 88 89 95 99 98 100 100 100 98 98 98 95 98 96 92 85 78 84 87 86 87 85 81 73 72 72 72 70 72 72
22 22 22 23 24 25 33 58 72 74 76 77 80 79 80 84 90 94 96 98 99 107 106 105 99 97 97 95 95 94 84 84 90 90 93 91 85 87 84 78 74 76 75 75 74
32 26 24 26 28 31 33 33 46 68 77 79 80 81 83 84 84 89 93 96 97 99 100 99 97 98 96 97 100 98 95 95 94 98 94 92 90 84 80 75 79 76 76 78 77
37 33 29 29 30 30 35 38 40 43 58 76 81 81 84 84 86 87 90 93 98 102 104 105 105 103 99 99 99 94 94 97 96 99 97 100 97 90 84 78 69 74 77 74 66
39 37 33 33 35 34 35 38 41 44 46 50 64 79 84 85 88 89 91 94 95 100 106 110 110 108 103 100 100 100 102 102 102 102 102 102 98 103 89 92 87 77 70 70 72
39 38 38 38 39 41 39 39 41 45 48 50 53 55 69 83 89 92 93 94 96 99 102 106 110 109 112 111 104 101 102 104 103 98 97 107 108 98 89 90 93 91 86 84 75
36 36 35 36 40 42 43 44 43 46 50 53 57 58 60 63 69 83 91 96 99 99 102 105 107 111 111 114 116 112 110 105 99 106 104 109 101 92 94 95 98 94 92 90 87
32 32 31 31 33 35 37 39 42 46 51 54 60 63 65 66 69 70 76 86 96 104 108 108 108 110 113 115 121 122 116 112 103 101 112 117 102 94 100 98 99 95 94 93 91
31 31 31 30 30 31 31 32 34 36 41 45 52 59 65 68 70 72 77 81 85 92 103 112 112 112 115 118 115 119 121 124 123 116 118 120 106 102 105 104 97 93 93 91 90
24 28 26 24 25 25 27 31 33 37 39 43 46 49 53 60 68 74 79 84 88 92 95 101 111 118 119 119 117 122 119 118 117 117 120 112 105 104 110 109 106 100 97 94 88
25 26 23 22 22 24 25 27 31 35 39 41 46 50 57 61 66 72 76 84 90 94 97 99 101 113 121 123 121 121 121 116 121 120 123 117 108 105 104 100 100 98 98 95 93
22 22 23 23 24 27 29 31 35 37 41 45 49 53 57 63 68 70 73 79 86 92 97 101 106 109 112 115 123 125 122 120 120 124 123 118 109 109 106 103 101 97 94 92 88
23 24 25 27 29 30 32 35 38 41 42 44 48 53 57 63 66 71 72 75 80 84 89 92 103 111 115 114 115 116 121 126 123 123 115 119 111 111 104 102 99 95 93 92 91
26 25 21 24 26 28 29 33 36 39 43 47 50 56 61 63 66 68 69 71 75 81 86 88 94 103 107 111 117 118 118 117 121 124 118 113 113 105 105 101 99 99 97 96 94
31 29 28 31 35 35 35 38 38 40 42 45 48 52 57 61 63 64 66 67 70 74 79 81 89 93 99 104 108 110 115 118 116 114 117 111 112 97 105 106 107 107 106 105 99
35 36 35 35 37 37 36 36 38 40 43 46 50 53 58 59 61 61 60 62 63 65 70 70 75 81 84 91 98 99 103 107 110 110 104 100 108 97 99 102 105 100 101 103 101
39 41 40 39 41 43 43 41 43 45 48 51 53 58 60 60 61 55 52 57 57 59 63 64 67 71 70 72 79 87 93 92 95 97 99 102 105 87 92 100 99 98 97 92 94
39 41 43 44 46 47 49 46 45 47 50 51 55 61 65 65 56 53 53 55 52 48 48 53 55 57 57 62 67 72 73 83 89 88 83 91 96 95 93 92 95 93 90 86 82
41 39 43 45 48 52 52 52 49 52 56 56 56 60 65 65 56 54 49 43 41 39 38 40 43 43 49 51 57 61 64 66 73 77 70 81 81 85 91 95 93 86 81 76 73
43 42 43 45 47 51 53 54 53 55 59 59 60 62 66 61 55 49 41 34 31 30 29 32 34 36 41 40 45 51 55 59 63 63 64 76 74 88 89 89 83 82 76 67 63
45 43 42 45 46 49 51 53 56 59 60 61 62 63 65 58 52 43 35 29 24 23 23 26 28 29 34 33 38 42 48 52 55 58 63 72 79 79 83 84 78 76 68 62 53
45 43 40 45 47 48 49 54 58 61 62 62 62 63 64 56 51 40 32 28 22 20 21 22 23 24 29 29 35 38 43 47 49 55 60 68 70 74 80 78 71 62 63 61 51
43 43 42 45 47 48 51 55 59 61 63 61 61 63 62 54 44 35 29 26 23 18 17 17 18 21 26 27 31 36 40 43 46 50 59 68 76 79 74 70 63 59 59 54 47
41 42 45 46 49 51 54 57 60 62 63 61 61 60 60 54 44 37 31 24 20 19 16 14 16 19 22 23 28 34 39 42 49 53 58 70 72 73 63 65 61 58 55 51 44
40 44 48 49 51 52 54 56 59 59 60 60 58 56 55 51 43 38 33 26 20 15 13 10 12 14 17 22 28 32 36 41 49 54 60 63 65 58 58 60 61 56 53 48 41
38 42 46 47 50 52 51 53 55 58 54 57 53 52 51 49 41 34 29 24 16 12 8 8 9 10 13 18 22 25 30 41 47 56 64 67 69 63 63 63 60 56 53 47 40

GFSSW_250_spd_042.txt.gz
Wind_Speed
41 39 36 31 30 29 23 28 52 75 80 77 77 79 82 86 87 91 92 102 100 102 109 111 113 106 103 92 93 101 99 91 89 85 82 84 78 81 79 73 78 80 75 75 64
41 41 41 38 32 30 28 22 33 61 77 78 77 79 81 82 86 87 92 96 101 102 104 108 112 114 107 100 100 94 97 93 96 95 92 91 93 88 85 81 79 80 75 75 75
43 43 42 40 38 34 29 27 23 39 67 77 77 77 80 81 82 88 89 90 94 99 101 103 106 109 113 113 111 108 90 93 93 100 103 102 92 94 85 83 84 84 81 78 78
41 38 37 37 36 34 33 30 29 27 42 68 77 77 79 81 79 86 88 90 93 94 96 98 99 103 107 106 106 116 108 107 101 97 107 105 107 102 100 90 92 90 90 87 82
39 39 39 37 37 36 35 34 33 33 35 43 65 76 78 79 79 83 85 88 92 94 94 96 97 102 102 105 108 104 103 108 112 114 106 99 102 102 105 98 93 88 86 88 90
40 40 36 35 33 35 36 36 38 38 39 42 45 59 75 77 81 81 84 87 88 91 96 98 98 97 100 102 101 104 103 107 105 109 113 116 113 109 101 104 102 98 94 95 91
27 27 26 29 30 31 33 36 38 42 43 45 47 49 53 64 78 81 85 86 90 91 92 96 98 100 100 102 102 101 101 103 105 105 110 112 110 107 99 105 107 107 107 109 103
27 29 29 26 24 24 27 32 35 39 46 47 48 49 51 56 59 70 81 87 90 92 95 96 96 98 103 105 107 108 106 103 97 107 105 117 113 104 98 104 104 102 101 101 100
29 28 24 20 17 14 18 22 29 35 40 47 51 52 51 57 55 59 64 72 84 92 95 97 98 101 102 105 107 108 108 112 107 106 108 118 107 99 101 101 104 104 103 103 101
29 27 22 19 20 21 22 23 23 29 33 40 47 52 54 56 59 61 63 67 70 74 86 97 99 102 104 107 103 109 112 112 109 113 119 122 116 98 100 101 101 103 104 102 101
27 26 23 19 20 20 21 22 24 27 26 29 36 42 45 52 55 60 65 68 70 73 76 79 88 100 106 107 107 111 112 107 107 116 127 131 121 105 104 100 99 101 106 105 103
30 26 26 23 21 20 20 22 23 25 27 30 30 34 35 39 44 49 55 62 68 73 78 81 82 86 94 104 109 112 113 110 110 113 122 123 124 112 114 111 111 110 108 104 102
33 30 27 26 26 26 23 20 22 24 26 30 35 38 40 43 44 48 49 53 59 64 70 77 82 87 91 92 98 108 113 114 117 120 123 118 119 115 112 112 114 114 115 111 104
33 30 29 30 27 27 26 28 30 33 31 37 38 41 42 45 46 49 51 55 59 63 68 71 77 82 87 92 100 101 104 108 116 119 121 122 123 117 108 107 110 114 113 115 111
31 29 28 31 32 30 30 30 32 33 33 35 36 39 41 43 46 49 49 52 58 62 66 69 74 81 82 86 96 101 104 108 109 112 116 120 124 111 113 110 111 109 111 115 116
29 28 27 29 32 32 34 35 36 35 37 36 41 41 44 46 47 50 54 56 59 62 67 70 75 81 81 86 93 96 100 106 109 113 112 106 116 110 114 111 113 113 114 113 113
25 27 28 28 30 32 33 36 38 42 42 44 47 47 48 47 48 52 55 58 63 67 72 74 78 81 82 86 90 94 94 99 104 107 105 107 118 105 99 108 112 114 116 114 110
23 26 29 30 31 33 32 36 42 44 46 47 51 52 53 53 54 55 58 61 66 70 72 73 74 78 80 83 80 83 92 94 96 100 97 103 107 96 95 96 100 103 108 111 111
25 24 27 29 31 33 35 38 41 44 46 51 54 56 58 60 60 61 61 62 63 64 64 66 65 67 68 70 71 75 81 85 86 83 89 92 91 89 88 89 94 99 103 103 102
30 25 25 28 32 35 38 40 43 45 49 54 57 59 61 65 66 63 62 60 58 61 60 56 51 53 55 55 60 61 71 73 74 70 77 80 79 78 80 82 84 90 94 99 97
42 35 30 30 33 35 37 41 46 46 50 56 59 60 62 64 61 60 56 53 54 54 51 44 42 42 44 46 47 52 56 61 65 64 62 63 62 71 72 70 72 76 84 93 87
55 47 39 34 35 37 41 45 49 49 51 56 58 59 57 58 53 49 46 48 46 43 41 39 35 35 35 38 40 42 46 51 50 56 50 49 54 57 58 57 64 75 71 79 77
65 64 56 48 40 36 38 42 44 47 47 48 48 47 48 48 46 42 44 45 42 37 32 32 29 29 29 33 34 36 36 38 41 44 42 40 42 49 55 60 65 64 76 66 48
74 69 66 62 57 51 45 41 40 39 39 38 38 40 41 40 35 42 44 41 35 32 27 24 24 26 25 27 24 25 20 28 33 36 37 36 38 41 49 55 49 58 56 53 60
77 76 75 71 66 61 53 45 38 34 30 31 36 37 37 34 34 40 42 34 29 24 20 18 18 19 19 19 17 17 16 24 26 31 32 36 43 43 49 48 51 57 45 58 62
78 80 81 73 73 67 59 51 39 33 29 28 32 34 31 31 38 38 38 30 24 22 20 18 15 13 12 13 10 14 18 24 27 29 29 35 44 50 52 51 36 37 49 59 59
78 80 82 81 74 71 62 54 45 38 29 31 31 30 27 32 35 39 35 27 22 21 19 17 14 12 10 9 5 9 18 27 27 31 32 40 49 49 44 29 41 50 52 51 51

GFSSW_250_spd_045.txt.gz
Wind_Speed
47 48 48 48 47 44 42 40 33 25 30 54 75 84 83 84 85 86 88 96 100 103 106 109 112 106 93 94 92 94 96 95 90 89 92 91 84 76 72 75 75 75 76 78 71
48 48 47 47 47 44 40 37 35 30 25 36 62 79 81 80 81 86 88 88 96 105 103 104 115 111 108 103 96 92 84 91 97 92 92 98 96 88 88 77 73 77 85 80 76
43 44 45 45 42 38 35 33 32 31 28 26 44 70 79 79 79 83 86 89 90 98 103 106 110 112 108 113 109 100 87 93 95 100 97 97 98 98 99 91 80 69 79 80 76
39 41 42 43 42 40 37 34 32 30 30 28 32 54 74 78 78 81 84 88 91 94 99 107 110 111 112 111 117 112 107 98 92 102 105 97 95 98 99 94 89 87 88 84 78
35 36 38 41 42 41 39 37 35 33 32 31 30 38 60 75 77 80 81 83 88 92 94 99 106 109 107 111 113 114 115 115 112 104 99 104 106 107 102 101 95 98 94 91 81
30 29 26 26 28 32 33 34 36 37 35 35 34 34 44 64 76 80 79 81 84 88 92 95 98 103 107 112 112 110 116 120 118 116 114 111 106 107 95 95 94 100 101 100 90
27 25 27 29 28 28 30 33 34 36 38 38 38 37 39 45 65 76 80 81 83 86 89 93 96 99 101 104 114 115 112 113 115 118 117 113 115 110 100 101 92 98 101 103 104
28 27 26 28 25 23 26 31 33 35 38 40 41 42 40 46 48 60 76 82 83 84 88 91 93 97 100 103 104 112 116 113 110 113 115 122 112 108 109 110 110 108 109 105 104
28 26 26 24 23 21 18 21 25 29 32 38 41 42 45 49 49 54 58 67 78 85 88 89 92 95 97 101 104 109 107 109 108 114 117 125 116 101 103 111 117 114 116 117 115
31 26 24 22 22 20 20 20 21 23 25 32 38 41 46 50 54 54 56 60 64 73 84 90 91 93 96 99 102 106 107 108 104 113 120 123 120 107 106 106 113 112 111 113 117
32 27 24 22 21 21 20 20 21 21 21 24 26 30 37 43 52 57 59 61 64 66 69 75 83 94 99 100 102 105 106 106 106 113 117 119 112 103 103 107 103 103 109 110 113
32 29 25 21 21 22 24 25 23 23 22 25 25 26 28 32 38 43 51 59 65 69 71 74 77 82 86 95 104 106 106 107 108 113 116 116 115 108 107 105 108 109 110 105 102
29 28 25 21 21 22 22 23 23 25 26 26 28 29 31 33 35 39 41 47 52 58 66 72 77 81 84 87 93 100 105 109 110 114 116 116 117 110 111 114 115 113 114 111 105
22 25 25 23 22 23 24 24 24 25 27 32 36 34 36 38 38 41 44 48 51 54 57 62 67 72 78 86 93 92 98 101 108 114 116 121 113 112 108 109 114 116 119 114 111
22 19 22 23 24 25 26 26 27 29 26 29 36 35 37 40 42 44 46 49 54 57 60 65 68 72 75 80 88 90 97 100 102 103 112 114 120 108 112 111 111 111 113 118 121
35 22 19 23 27 28 30 31 34 33 34 33 36 38 40 40 42 43 46 52 56 59 62 65 70 72 75 79 86 89 96 98 101 104 107 99 111 103 112 115 113 114 114 115 116
52 37 26 22 27 30 33 35 37 38 38 38 42 43 46 48 48 48 50 54 56 58 62 66 73 79 76 79 85 89 91 94 97 100 101 103 113 95 100 107 114 119 114 117 115
68 54 39 29 28 30 34 36 38 39 40 43 44 47 50 52 53 55 58 59 60 60 65 68 74 81 79 81 83 85 83 85 90 97 98 99 104 95 96 102 106 107 113 118 118
76 69 58 46 35 32 37 39 41 44 46 46 48 50 52 55 58 62 64 65 63 62 63 67 71 82 81 82 78 81 76 79 86 82 88 93 94 90 94 94 100 101 102 102 105
78 75 72 64 54 45 37 35 39 43 49 53 53 54 55 58 62 65 65 64 60 57 55 56 51 69 61 64 65 63 67 68 73 75 78 81 80 80 84 85 88 92 91 95 100
81 78 78 76 70 59 47 42 39 37 41 46 49 50 52 56 58 59 57 53 51 48 50 47 47 55 50 51 53 49 55 58 61 63 65 66 64 63 70 72 74 80 84 88 86
88 82 81 82 79 72 63 53 43 40 37 36 39 41 38 40 43 43 45 44 43 44 47 45 41 41 42 38 36 38 45 47 48 53 54 52 55 53 53 59 60 67 74 72 74
88 87 85 84 84 81 71 62 50 41 33 30 28 27 30 33 37 39 36 38 42 42 37 36 32 30 32 27 28 28 31 35 37 40 43 41 45 40 49 47 48 55 56 60 61
88 91 85 86 86 84 76 71 61 49 36 29 24 24 27 30 32 32 34 37 40 34 31 29 25 24 23 22 23 24 28 35 36 37 37 34 34 38 37 39 43 43 41 45 40
88 89 89 88 89 87 84 76 66 54 42 32 27 28 31 30 26 31 33 39 34 30 26 22 19 17 13 13 17 19 27 33 32 33 33 30 29 30 32 35 39 36 36 38 42
89 90 91 89 88 88 84 78 73 59 49 41 31 29 31 28 25 31 32 34 29 27 19 18 15 13 7 5 10 17 23 23 26 28 28 30 27 25 29 33 38 34 36 44 57
88 90 91 91 90 89 89 82 76 71 55 45 38 31 31 27 28 31 32 29 28 23 18 14 12 13 10 7 8 12 19 14 17 21 25 24 26 21 25 24 23 34 42 58 63

GFSSW_250_spd_048.txt.gz
Wind_Speed
50 52 54 55 56 56 56 55 54 52 49 42 36 40 61 83 88 90 92 94 98 107 111 108 108 110 98 99 93 97 100 89 89 89 96 100 90 89 84 78 74 78 71 72 72
41 45 48 50 51 52 51 50 48 45 44 40 35 32 51 74 88 89 91 94 98 101 110 113 112 109 110 105 101 95 88 81 74 90 103 102 94 96 88 84 79 84 83 79 71
35 37 41 44 45 46 46 45 43 42 39 37 34 31 35 60 84 90 92 94 96 100 102 112 113 112 112 113 104 103 93 102 96 84 89 103 100 104 97 90 86 86 79 75 77
33 34 34 36 39 41 43 44 43 40 38 35 32 29 27 43 70 89 92 92 94 97 101 105 114 112 114 112 114 108 105 99 100 103 99 85 92 101 100 91 92 95 91 88 84
29 30 30 30 30 31 34 40 42 41 37 36 33 31 27 32 53 80 89 91 91 93 99 101 105 111 112 115 111 111 115 107 101 92 97 106 100 88 89 99 102 99 96 91 92
27 28 28 26 26 27 28 30 32 37 39 37 36 33 30 30 41 63 81 88 89 90 92 99 99 104 114 112 114 112 116 115 113 109 102 101 101 110 97 88 85 91 90 92 99
29 27 26 26 25 26 27 28 30 33 36 37 38 37 35 34 33 44 69 83 87 89 90 92 98 99 105 112 111 114 114 113 111 114 122 114 106 100 102 106 102 95 90 92 97
30 29 28 25 24 22 21 23 24 28 32 35 36 39 41 39 37 41 51 72 83 87 89 90 92 97 101 104 105 112 115 118 118 121 122 129 111 108 107 108 108 106 105 102 101
32 31 31 26 24 21 18 18 20 20 24 30 35 38 42 42 45 45 45 55 72 84 88 89 92 94 97 102 104 107 110 120 121 127 128 130 117 113 118 116 109 105 106 109 111
29 31 30 28 24 22 19 17 17 20 23 26 29 35 40 43 47 46 48 51 56 72 85 89 91 92 97 99 103 104 106 107 116 125 126 127 117 106 111 120 120 119 115 112 116
22 27 30 28 25 22 21 19 19 14 20 22 26 28 34 37 43 45 51 53 55 59 67 79 88 94 94 96 99 102 104 108 112 114 118 122 121 117 113 116 118 122 120 113 98
25 17 24 27 25 23 21 21 23 23 22 18 25 26 28 31 36 39 45 51 57 60 62 65 72 82 92 98 98 99 104 108 110 114 115 119 113 115 121 126 124 121 118 116 109
45 25 12 20 24 25 24 21 22 25 24 25 24 25 27 30 32 33 38 44 49 54 61 65 70 73 78 84 92 101 104 105 108 110 114 119 113 111 111 113 121 127 125 120 119
68 47 25 14 20 25 28 29 26 25 26 30 29 33 35 36 36 36 40 43 44 47 52 58 64 73 80 84 86 90 100 108 110 111 113 118 112 113 111 114 113 116 119 117 118
82 71 53 29 17 23 28 32 34 36 34 35 35 38 40 39 40 39 42 46 49 52 53 57 62 68 73 81 89 94 97 100 101 109 115 112 117 105 113 113 116 118 121 121 120
90 82 75 61 34 21 25 31 36 39 39 38 41 46 46 43 43 42 43 47 51 53 55 61 65 68 73 77 82 90 94 98 102 104 107 104 117 103 111 113 118 121 121 122 120
87 87 82 78 67 45 27 21 28 38 43 46 48 51 53 50 48 50 52 54 55 55 57 61 67 71 75 78 83 90 92 94 96 101 103 108 106 94 101 110 116 118 118 117 119
89 88 86 81 77 67 51 38 28 26 35 41 47 51 55 56 57 57 57 58 57 58 61 64 68 77 80 83 86 93 95 95 94 96 96 101 96 98 97 104 105 108 113 117 116
88 87 87 85 83 79 69 54 43 33 29 30 38 46 52 52 56 58 60 60 59 61 62 63 66 74 84 86 88 87 87 89 85 86 89 95 94 91 91 95 99 103 103 103 104
89 89 89 88 86 85 81 72 59 44 38 33 29 33 38 47 51 53 59 57 58 59 60 57 54 64 70 74 77 78 79 83 78 74 79 82 85 84 83 86 95 95 96 99 99
89 89 91 90 89 87 86 82 71 59 44 32 28 29 30 34 41 46 45 44 46 49 50 49 49 53 57 59 59 62 58 65 67 67 66 68 70 73 73 78 82 83 84 87 88
89 89 91 91 89 90 90 88 80 68 56 40 31 27 22 24 29 30 34 38 40 44 43 44 45 49 48 46 45 46 51 51 54 57 57 57 54 56 59 65 61 66 73 78 79
86 90 90 91 91 92 91 91 88 78 66 50 38 28 24 20 24 24 29 31 31 38 38 43 40 39 42 38 37 37 39 41 40 42 48 42 42 43 42 46 49 53 64 66 67
85 88 91 90 92 90 92 93 92 85 75 60 45 34 26 24 24 26 23 26 31 34 36 33 31 29 32 36 35 30 31 31 31 33 36 30 32 34 33 38 38 43 46 53 57
82 86 91 92 93 93 93 93 92 88 81 71 52 39 33 27 26 25 22 28 27 31 29 27 27 25 26 30 30 29 26 25 26 21 17 22 24 24 27 27 30 34 34 45 48
80 83 87 90 92 94 95 95 94 93 84 75 63 46 35 28 27 25 24 30 27 25 25 24 22 22 25 23 24 21 21 20 17 16 16 12 17 19 20 25 28 29 33 33 35
79 83 85 89 93 95 96 98 97 95 91 79 66 54 41 33 27 26 25 27 28 25 20 17 18 22 23 15 14 14 15 12 11 12 9 9 10 17 23 28 32 38 40 44 47